COSMOS 2190

Satellite information

Favourite Embed

Satellite Type and Status

PAYLOADIN ORBIT

Key statistics

Satellite COSMOS 2190 at a glance.

Uptime

12151

Days in orbit

Revolutions

≈ 12.5

Per day

Orbit

LEO

Low Earth Orbit

Inclination

74.0

Latest

Satellite identification and parameters

Extended collection of information and parameters for COSMOS 2190.

Object identification

Identified? True

Debris? False

Object name: COSMOS 2190

International designator: 1992-030D

Object number (NORAD): 21979

Object ID (CCSDS): 21979

Country: COMMONWEALTH OF INDEPENDENT STATES (CIS)

Current information (Y/N): Y

RCS size: MEDIUM

Orbital parameters

Period: 114.99 minutes

Inclination: 74.0002 deg

SMA: 7833.11 km

Apoapsis: 1479.555 km

Periapsis: 1430.395 km

RAAN: 233.3889 deg

Eccentricy: 0.00313795

Argument of periapsis: 172.2494 deg

Mean anomaly: 308.1524 deg

Mean motion: 12.52280037 rev/day

Mean motion (dot): -0.00000027 rev/day2

B* drag term: -0.000067459306 1/REarth

Two-line elements (TLE)

Creation date: Sept. 8, 2025, 6:18 p.m.

Reference frame: TEME

Reference center: EARTH

Epoch: Sept. 8, 2025, 9:55 a.m. UTC

TLE line 0: 0 COSMOS 2190

TLE line 1: 1 21979U 92030D 25251.41354527 -.00000027 00000-0 -67459-4 0 9994

TLE line 2: 2 21979 74.0002 233.3889 0031380 172.2494 308.1524 12.52280037520676

Live tracking on map

Real-time ground track for satellite COSMOS 2190.

In-orbit conjunctions

There are no conjunctions computed for COSMOS 2190, at the moment. Check back to stay up to date, as we update our databases every day.

Go to all conjunctions

Associated space launch

Military communications satellites

COSMOS 2190 was lifted into orbit during the mission ‘Kosmos-3M | Strela-1M 361-368’, on board a Kosmos-3M space rocket.

The launch took place on June 3, 1992, 12:50 a.m. from 133/3 (133L).

For more information about the launch, click the button.

Launch to space Kosmos-3M | Strela-1M 361-368
Kosmos-3M | Strela-1M 361-368

Agency: N/A

Status: Launch Successful

Launch date: June 3, 1992, 12:50 a.m. UTC

Rocket: Kosmos-3M

Launch pad: 133/3 (133L)

Location: Plesetsk Cosmodrome, Russian Federation

...

Latest news about this satellite

There are no fresh news available about this satellite. Check back as we update our databases every day.


Newsletter sign-up

Weekly statistics, charts and insights to help you stay on top of the space industry.